This is the latest recevied weather packets stored in our database for station/object IZ1UQG-N2. If no packets are shown the sender has not sent any weather packets the latest 10 day(s).
| Time | Temp. | Humidity | Pressure | Rain* | Wind** | Luminosity | Snow |
|---|---|---|---|---|---|---|---|
| 1777374976 | 17.22° C | 78% | 1014.7 hPa | 0 mm | - | 239 W/m² | - |
| 1777374916 | 17.22° C | 78% | 1014.7 hPa | 0 mm | - | 243 W/m² | - |
| 1777374877 | 17.22° C | 78% | 1014.8 hPa | 0 mm | - | 246 W/m² | - |
| 1777374856 | 17.22° C | 78% | 1014.8 hPa | 0 mm | - | 246 W/m² | - |
| 1777374796 | 17.22° C | 77% | 1014.7 hPa | 0 mm | - | 251 W/m² | - |
| 1777374736 | 17.22° C | 77% | 1014.7 hPa | 0 mm | - | 258 W/m² | - |
| 1777374696 | 17.22° C | 76% | 1014.8 hPa | 0 mm | - | 260 W/m² | - |
| 1777374677 | 17.22° C | 76% | 1014.8 hPa | 0 mm | - | 260 W/m² | - |
| 1777374616 | 17.22° C | 77% | 1014.7 hPa | 0 mm | - | 258 W/m² | - |
| 1777374556 | 17.22° C | 78% | 1014.9 hPa | 0 mm | - | 253 W/m² | - |
| 1777374516 | 17.78° C | 78% | 1014.9 hPa | 0 mm | - | 246 W/m² | - |
| 1777374497 | 17.78° C | 78% | 1014.9 hPa | 0 mm | - | 246 W/m² | - |
| 1777374437 | 17.22° C | 79% | 1014.8 hPa | 0 mm | - | 239 W/m² | - |
| 1777374377 | 17.22° C | 79% | 1014.9 hPa | 0 mm | - | 236 W/m² | - |
| 1777374336 | 17.22° C | 79% | 1014.9 hPa | 0 mm | - | 236 W/m² | - |
| 1777374316 | 17.22° C | 79% | 1014.9 hPa | 0 mm | - | 236 W/m² | - |
| 1777374256 | 17.22° C | 79% | 1014.9 hPa | 0 mm | - | 236 W/m² | - |
| 1777374197 | 17.22° C | 79% | 1014.9 hPa | 0 mm | - | 236 W/m² | - |
| 1777374156 | 17.22° C | 80% | 1014.9 hPa | 0 mm | - | 237 W/m² | - |
| 1777374136 | 17.22° C | 80% | 1014.9 hPa | 0 mm | - | 237 W/m² | - |
| 1777374076 | 17.22° C | 80% | 1014.9 hPa | 0 mm | - | 237 W/m² | - |
| 1777374016 | 17.22° C | 80% | 1014.8 hPa | 0 mm | - | 236 W/m² | - |
| 1777373975 | 17.22° C | 79% | 1014.8 hPa | 0 mm | - | 234 W/m² | - |
| 1777373955 | 17.22° C | 79% | 1014.8 hPa | 0 mm | - | 234 W/m² | - |
| 1777373895 | 17.22° C | 79% | 1014.8 hPa | 0 mm | - | 234 W/m² | - |
* Rain latest hour (hover to see other rain measurements)
** Current wind speed in m/s (hover to see current wind gust speed)